Flag for Canada Weather past 2 weeks in Markham, Ontario, Canada

Now
41 °F

Passing clouds.


Feels Like: 41 °F
Forecast: 40 / 53 °F
Wind: 2 mph from South

Location: Toronto Buttonville

Current Time: Oct 20, 2014 at 6:06:10 AM

Latest Report: Oct 20, 2014 at 5:00 AM


Visibility: 15 mi

Pressure: 29.93 "Hg

Humidity: 87%

Dew point: 37 °F

Location of MarkhamLocation

Historic Weather in Markham — Graph

°F

Markham temperature yesterday

Maximum temperature yesterday: 48 °F (at 3:00 PM)
Minimum temperature yesterday: 37 °F (at 4:00 AM)
Average temperature yesterday: 42 °F

Past Weeks' High & Low Weather Summary

 TemperatureHumidityPressure
High73 °F (Oct 14, 4:00 PM)100% (Oct 7, 8:00 PM)30.31 "Hg (Oct 7, 8:00 PM)
Low32 °F (Oct 12, 6:00 AM)41% (Oct 13, 7:00 PM)29.48 "Hg (Oct 18, 12:00 AM)
Average51 °F79%29.88 "Hg
* Reported Oct 5 5:00 AM — Oct 20 5:00 AM, Markham, Weather by CustomWeather, © 2014

Note: Actual official high and low records may vary slightly from our data, if they occured in-between our weather recording intervals... More about our weather records

Advertising

Markham weather history for previous 24 hours

 ConditionsComfort  
Time TempWeatherWind HumidityBarometerVisibility
5:00 AM
Oct 20
41 °FPassing clouds.2 mph87%29.93 "Hg15 mi
4:00 AM43 °FMostly cloudy.No wind76%29.96 "Hg15 mi
3:00 AM43 °FPassing clouds.2 mph76%29.98 "Hg15 mi
2:00 AM41 °FPassing clouds.No wind87%29.99 "Hg15 mi
1:00 AM41 °FPassing clouds.No wind87%30.00 "Hg15 mi
11:00 PM
Oct 19
41 °FPartly cloudy.No wind76%30.01 "Hg15 mi
10:00 PM43 °FPartly cloudy.2 mph71%30.03 "Hg15 mi
9:00 PM43 °FPassing clouds.5 mph71%30.04 "Hg15 mi
8:00 PM43 °FPassing clouds.2 mph66%30.04 "Hg15 mi
7:00 PM45 °FPartly sunny.No wind61%30.05 "Hg15 mi
6:00 PM46 °FPartly sunny.5 mph53%30.05 "Hg15 mi
5:00 PM48 °FPartly sunny.5 mph46%30.06 "Hg15 mi
4:00 PM48 °FPartly sunny.No wind50%30.07 "Hg15 mi
3:00 PM48 °FBroken clouds.8 mph50%30.08 "Hg15 mi
2:00 PM45 °FBroken clouds.6 mph57%30.09 "Hg15 mi
1:00 PM45 °FPartly sunny.10 mph53%30.11 "Hg15 mi
12:00 PM43 °FPartly sunny.6 mph57%30.13 "Hg15 mi
11:00 AM41 °FOvercast.5 mph61%30.13 "Hg15 mi
10:00 AM39 °FOvercast.7 mph61%30.13 "Hg15 mi
9:00 AM39 °FPartly sunny.6 mph61%30.12 "Hg15 mi
8:00 AM37 °FPassing clouds.5 mph60%30.11 "Hg15 mi
7:00 AM37 °FPassing clouds.9 mph60%30.09 "Hg15 mi
6:00 AM37 °FPassing clouds.13 mph60%30.08 "Hg15 mi
Weather by CustomWeather, © 2014

See weather overviewHow to use our weather pages